Location: Caltech
(34.1382°N, 118.1253°W)
Time: 07:53:12
(UTC-07:00)

SO-67 - Visible Passes

Search period start: 27 August 2014 00:00
Search period end: 06 September 2014 00:00
Orbit: 463 x 466 km, 97.2° (Epoch: 26 August)

Date Brightness Start Highest point End Pass type
(mag) Time Alt. Az. Time Alt. Az. Time Alt. Az.
28 Aug ? 20:18:16 10° SW 20:20:05 14° W 20:21:55 10° WNW visible
29 Aug ? 19:46:07 10° SSW 19:49:20 36° W 19:52:34 10° NNW visible
31 Aug ? 20:19:29 10° WSW 20:21:11 13° W 20:22:53 10° WNW visible
01 Sep ? 19:47:12 10° SSW 19:50:22 34° W 19:53:35 10° NNW visible
03 Sep ? 20:20:34 10° WSW 20:22:09 13° W 20:23:44 10° WNW visible
04 Sep ? 19:48:08 10° SSW 19:51:17 33° W 19:54:28 10° NNW visible
